| time (UTC) | temp F | wind direction | speed knots | gust knots | rain 1hr in | rain 24hr in | rain mn in | humidity % | barometer mb |
| 20260503225334 | 34 | 354 | 0.0 | 0.0 | 0.00 | 0.00 | 0.00 | 67 | 1021.4 |
| 20260503224834 | 34 | 53 | 0.0 | 0.0 | 0.00 | 0.00 | 0.00 | 67 | 1021.3 |
| 20260503223834 | 34 | 45 | 0.0 | 0.9 | 0.00 | 0.00 | 0.00 | 66 | 1021.2 |
| 20260503222334 | 34 | 350 | 0.0 | 0.0 | 0.00 | 0.00 | 0.00 | 66 | 1021.2 |
| 20260503220835 | 34 | 85 | 1.7 | 2.6 | 0.00 | 0.00 | 0.00 | 66 | 1021.3 |
| 20260503215834 | 35 | 124 | 0.9 | 0.9 | 0.00 | 0.00 | 0.00 | 66 | 1021.1 |
| 20260503214334 | 35 | 77 | 0.9 | 0.9 | 0.00 | 0.00 | 0.00 | 65 | 1021.2 |
| 20260503213333 | 35 | 58 | 0.0 | 0.9 | 0.00 | 0.00 | 0.00 | 65 | 1021.1 |
| 20260503212834 | 36 | 70 | 0.9 | 0.9 | 0.00 | 0.00 | 0.00 | 65 | 1020.9 |
| 20260503211334 | 36 | 52 | 0.0 | 0.0 | 0.00 | 0.00 | 0.00 | 64 | 1021.1 |
| 20260503210334 | 37 | 72 | 0.0 | 0.9 | 0.00 | 0.00 | 0.00 | 64 | 1021.1 |
| 20260503205834 | 37 | 106 | 0.9 | 1.7 | 0.00 | 0.00 | 0.00 | 64 | 1020.8 |
| 20260503203334 | 38 | 323 | 0.9 | 1.7 | 0.00 | 0.00 | 0.00 | 63 | 1021.1 |
| 20260503201834 | 38 | 341 | 0.0 | 0.9 | 0.00 | 0.00 | 0.00 | 62 | 1020.9 |
| 20260503201334 | 38 | 327 | 0.9 | 0.9 | 0.00 | 0.00 | 0.00 | 62 | 1021.0 |
| 20260503200834 | 38 | 313 | 0.0 | 0.9 | 0.00 | 0.00 | 0.00 | 62 | 1021.2 |
| 20260503200334 | 39 | 2 | 0.9 | 1.7 | 0.00 | 0.00 | 0.00 | 62 | 1021.2 |
| 20260503195834 | 39 | 358 | 0.9 | 0.9 | 0.00 | 0.00 | 0.00 | 61 | 1021.0 |
| 20260503195333 | 39 | 346 | 0.0 | 0.9 | 0.00 | 0.00 | 0.00 | 61 | 1021.2 |
| 20260503194334 | 40 | 358 | 0.0 | 0.9 | 0.00 | 0.00 | 0.00 | 60 | 1021.1 |
| 20260503193834 | 40 | 60 | 0.0 | 2.6 | 0.00 | 0.00 | 0.00 | 61 | 1021.0 |
| 20260503191834 | 41 | 329 | 0.9 | 1.7 | 0.00 | 0.00 | 0.00 | 59 | 1020.9 |
| 20260503190335 | 41 | 318 | 0.9 | 1.7 | 0.00 | 0.00 | 0.00 | 58 | 1021.0 |
| 20260503185334 | 42 | 308 | 1.7 | 2.6 | 0.00 | 0.00 | 0.00 | 58 | 1020.9 |
| 20260503184834 | 42 | 307 | 0.9 | 1.7 | 0.00 | 0.00 | 0.00 | 57 | 1021.0 |
| 20260503184334 | 42 | 320 | 0.9 | 1.7 | 0.00 | 0.00 | 0.00 | 56 | 1020.8 |
| 20260503183834 | 42 | 314 | 0.9 | 1.7 | 0.00 | 0.00 | 0.00 | 56 | 1020.9 |
| 20260503182334 | 43 | 276 | 0.9 | 1.7 | 0.00 | 0.00 | 0.00 | 55 | 1020.7 |
| 20260503180334 | 45 | 231 | 1.7 | 2.6 | 0.00 | 0.00 | 0.00 | 54 | 1020.6 |
| 20260503175834 | 45 | 246 | 0.9 | 1.7 | 0.00 | 0.00 | 0.00 | 54 | 1020.8 |
| 20260503174834 | 46 | 274 | 0.9 | 1.7 | 0.00 | 0.00 | 0.00 | 53 | 1020.8 |
| 20260503174334 | 46 | 279 | 0.9 | 2.6 | 0.00 | 0.00 | 0.00 | 53 | 1020.8 |
| 20260503172333 | 47 | 323 | 2.6 | 5.2 | 0.00 | 0.01 | 0.00 | 52 | 1020.5 |
| 20260503171834 | 47 | 333 | 1.7 | 7.0 | 0.00 | 0.02 | 0.00 | 51 | 1020.5 |
| 20260503170834 | 48 | 35 | 4.3 | 7.0 | 0.00 | 0.03 | 0.00 | 50 | 1020.7 |
| 20260503150834 | 50 | 356 | 1.7 | 6.1 | 0.00 | 0.12 | 0.00 | 48 | 1020.6 |
| 20260503150334 | 50 | 354 | 4.3 | 11.3 | 0.00 | 0.12 | 0.00 | 48 | 1020.8 |
| 20260503131334 | 51 | 336 | 2.6 | 7.8 | 0.00 | 0.13 | 0.00 | 50 | 1021.5 |
| 20260503130334 | 50 | 342 | 2.6 | 5.2 | 0.00 | 0.13 | 0.00 | 50 | 1021.3 |
| 20260503090334 | 47 | 296 | 2.6 | 6.1 | 0.00 | 0.13 | 0.00 | 57 | 1022.9 |
| 20260503081334 | 44 | 342 | 1.7 | 7.0 | 0.00 | 0.13 | 0.00 | 62 | 1023.2 |
| 20260503080333 | 44 | 336 | 4.3 | 8.7 | 0.00 | 0.13 | 0.00 | 62 | 1023.2 |
| 20260503071833 | 43 | 260 | 2.6 | 5.2 | 0.00 | 0.13 | 0.00 | 66 | 1023.1 |
| 20260503071334 | 43 | 312 | 2.6 | 5.2 | 0.00 | 0.13 | 0.00 | 66 | 1023.3 |
| 20260503070834 | 43 | 292 | 1.7 | 7.0 | 0.00 | 0.13 | 0.00 | 66 | 1023.2 |
| 20260503060334 | 42 | 318 | 0.9 | 5.2 | 0.00 | 0.13 | 0.00 | 74 | 1023.1 |
| 20260503053834 | 40 | 257 | 2.6 | 5.2 | 0.00 | 0.13 | 0.00 | 77 | 1023.1 |
| 20260503051833 | 39 | 256 | 2.6 | 7.0 | 0.00 | 0.13 | 0.00 | 77 | 1022.8 |
| 20260503051334 | 39 | 292 | 2.6 | 7.0 | 0.00 | 0.13 | 0.00 | 77 | 1022.8 |
| 20260503050834 | 39 | 305 | 3.5 | 10.4 | 0.00 | 0.13 | 0.00 | 77 | 1022.8 |
| 20260503050334 | 38 | 300 | 5.2 | 10.4 | 0.00 | 0.13 | 0.00 | 78 | 1022.9 |
| 20260503045833 | 38 | 312 | 5.2 | 8.7 | 0.00 | 0.13 | 0.00 | 78 | 1022.7 |
| 20260503044333 | 37 | 299 | 2.6 | 7.0 | 0.00 | 0.13 | 0.00 | 77 | 1022.8 |
| 20260503042834 | 37 | 323 | 2.6 | 5.2 | 0.00 | 0.13 | 0.00 | 78 | 1022.4 |
| 20260503041334 | 36 | 26 | 0.0 | 0.9 | 0.00 | 0.13 | 0.00 | 78 | 1022.4 |
| 20260503040834 | 36 | 5 | 0.0 | 2.6 | 0.00 | 0.13 | 0.00 | 78 | 1022.4 |
| 20260503040333 | 36 | 220 | 0.9 | 2.6 | 0.00 | 0.13 | 0.00 | 78 | 1022.3 |
| 20260503035834 | 36 | 263 | 0.9 | 1.7 | 0.00 | 0.13 | 0.00 | 78 | 1022.1 |
| 20260503035333 | 36 | 64 | 0.9 | 1.7 | 0.00 | 0.13 | 0.00 | 78 | 1022.0 |
| 20260503034834 | 36 | 10 | 0.0 | 1.7 | 0.00 | 0.13 | 0.00 | 78 | 1021.9 |
| 20260503034334 | 36 | 313 | 0.9 | 1.7 | 0.00 | 0.13 | 0.00 | 77 | 1021.9 |
| 20260503033833 | 36 | 303 | 1.7 | 2.6 | 0.00 | 0.13 | 0.00 | 77 | 1021.7 |
| 20260503033333 | 36 | 315 | 0.9 | 1.7 | 0.00 | 0.13 | 0.00 | 77 | 1021.7 |
| 20260503031333 | 36 | 22 | 0.0 | 1.7 | 0.00 | 0.13 | 0.00 | 77 | 1021.6 |
| 20260503030333 | 35 | 336 | 4.3 | 8.7 | 0.00 | 0.13 | 0.00 | 78 | 1021.4 |
| 20260503025833 | 35 | 311 | 3.5 | 5.2 | 0.00 | 0.13 | 0.00 | 77 | 1021.4 |
| 20260503021834 | 36 | 158 | 1.7 | 1.7 | 0.00 | 0.13 | 0.00 | 76 | 1021.3 |
| 20260503020833 | 36 | 75 | 0.9 | 1.7 | 0.00 | 0.13 | 0.00 | 76 | 1021.1 |
| 20260503015833 | 37 | 91 | 1.7 | 2.6 | 0.00 | 0.13 | 0.00 | 76 | 1021.2 |
| 20260503015334 | 37 | 93 | 0.9 | 4.3 | 0.00 | 0.13 | 0.00 | 77 | 1020.9 |
| 20260503014333 | 37 | 285 | 1.7 | 5.2 | 0.00 | 0.13 | 0.00 | 77 | 1021.0 |
| 20260503013834 | 37 | 311 | 2.6 | 6.1 | 0.00 | 0.13 | 0.00 | 77 | 1021.2 |
| 20260503013334 | 37 | 302 | 2.6 | 6.1 | 0.00 | 0.13 | 0.00 | 77 | 1021.0 |
| 20260503011833 | 37 | 305 | 2.6 | 5.2 | 0.00 | 0.13 | 0.00 | 76 | 1021.1 |
| 20260503011334 | 37 | 265 | 1.7 | 4.3 | 0.00 | 0.13 | 0.00 | 76 | 1021.4 |
| 20260503010834 | 37 | 259 | 0.9 | 2.6 | 0.00 | 0.13 | 0.00 | 76 | 1021.2 |
| 20260503010333 | 37 | 287 | 0.9 | 2.6 | 0.00 | 0.13 | 0.00 | 75 | 1021.3 |
| 20260503005333 | 37 | 270 | 0.9 | 1.7 | 0.00 | 0.13 | 0.00 | 75 | 1021.1 |
| 20260503002834 | 38 | 308 | 0.9 | 2.6 | 0.00 | 0.13 | 0.00 | 75 | 1020.8 |
| 20260503002333 | 38 | 293 | 0.0 | 0.9 | 0.00 | 0.13 | 0.00 | 75 | 1020.8 |
| 20260503001833 | 38 | 338 | 0.0 | 1.7 | 0.00 | 0.13 | 0.00 | 75 | 1020.8 |
| 20260503001334 | 38 | 310 | 1.7 | 5.2 | 0.00 | 0.13 | 0.00 | 75 | 1020.9 |
| 20260502235334 | 39 | 286 | 2.6 | 5.2 | 0.00 | 0.13 | 0.00 | 75 | 1020.6 |
| 20260502234333 | 40 | 284 | 0.9 | 1.7 | 0.00 | 0.13 | 0.00 | 75 | 1020.5 |
| 20260502233334 | 40 | 297 | 0.9 | 2.6 | 0.00 | 0.13 | 0.00 | 75 | 1020.8 |
| 20260502232834 | 40 | 306 | 1.7 | 4.3 | 0.00 | 0.13 | 0.00 | 75 | 1020.8 |
| 20260502230833 | 40 | 280 | 0.9 | 1.7 | 0.00 | 0.13 | 0.00 | 75 | 1021.1 |